Regional Weather Roundup
Issued by NWS

Home | Current Version | Previous Version | Graphics & Text | Print | Product List | Glossary On
Versions: 1 2 3 4 5 6 7 8 9 10 11 12 13 14 15 16 17 18 19 20 21 22 23 24 25 26 27 28 29 30 31 32 33 34 35 36 37 38 39 40 41 42 43 44 45 46 47 48 49 50
000
ASUS43 KMPX 280110
RWRMN
WEATHER ROUNDUP FOR MINNESOTA
NATIONAL WEATHER SERVICE TWIN CITIES/CHANHASSEN MN
700 PM CST SAT DEC 27 2014


NOTE: "FAIR" INDICATES FEW OR NO CLOUDS BELOW 12,000 FEET WITH NO
SIGNIFICANT WEATHER AND/OR OBSTRUCTIONS TO VISIBILITY. N/A MEANS
CURRENT SKY AND/OR WEATHER CONDITIONS ARE NOT AVAILABLE.

MNZ060>063-068>070-280200-
   Twin Cities Metro

CITY           SKY/WX    TMP DP  RH WIND       PRES   REMARKS
TWIN CITIES    CLEAR     13   6  74 W7        30.13R WCI   3
ST PAUL        CLEAR     13   6  74 CALM      30.14R
CRYSTAL        CLEAR     15   7  70 SW7       30.11R WCI   5
BLAINE         CLEAR     16  10  79 SW8       30.10R WCI   5
LAKEVILLE      CLEAR     10   5  79 W6        30.12R WCI   1
EDEN PRAIRIE   CLEAR     12   5  73 W6        30.12R WCI   3
SOUTH ST PAUL  CLEAR     15   7  72 W6        30.12S WCI   6
LAKE ELMO      FAIR      14   9  79 SW6       30.11S WCI   5
$$
MNZ001>005-007-008-013>017-022>024-027-028-280200-
   Northwest Minnesota

CITY           SKY/WX    TMP DP  RH WIND       PRES   REMARKS
BEMIDJI        CLOUDY    16  12  85 CALM      29.98F
HALLOCK        FLURRIES  12   7  79 N12       30.05S WCI  -2
ROSEAU         FLURRIES  14   9  79 NW12      30.02R WCI   0
WARROAD        LGT SNOW  12   9  85 W10G17    30.01R WCI  -1
THIEF RVR FALL CLOUDY    16  12  86 W5        30.02S WCI   9
CROOKSTON      LGT SNOW  18  16  93 CALM      30.04S
FOSSTON        LGT SNOW  14  12  92 SW5       30.01R WCI   6
DETROIT LAKES  CLOUDY    21  19  93 SW6       30.02S WCI  14
MOORHEAD       MOCLDY    25  21  86 CALM      30.04S
PARK RAPIDS    CLOUDY    19  14  81 W3        29.99F
MAHNOMEN       CLOUDY    19  16  89 S6        30.00S WCI  10
$$
MNZ006-009>011-018-025>026-280200-
   North Central Minnesota

CITY           SKY/WX    TMP DP  RH WIND       PRES   REMARKS
BAUDETTE       LGT SNOW  14  10  84 VRB3      29.98R FOG
FLAG ISLAND    CLOUDY    10   5  79 NW13      30.00R WCI  -5
INTL FALLS     CLOUDY    11   6  81 W7        29.96S WCI   0
WASKISH        LGT SNOW  16  12  86 SW8       29.99S WCI   5
BIG FORK       CLOUDY    16   9  73 SW7       29.97F WCI   6
LONGVILLE      CLOUDY    18  12  79 W9        30.01S WCI   6
GRAND RAPIDS   CLOUDY    19   7  58 W8        29.98R WCI   9
CRANE LAKE     PTCLDY    12   7  79 W5        29.97S WCI   4
ORR            PTCLDY    12   3  67 CALM      29.94S
COOK           CLOUDY    16   7  67 W7        29.96S WCI   6
WALKER         CLOUDY    17  11  78 SW7       29.99F WCI   8
$$
MNZ012-019>021-037-280200-
   Northeast Minnesota

CITY           SKY/WX    TMP DP  RH WIND       PRES   REMARKS
DULUTH         MOCLDY    19   7  59 W8        29.96S WCI   9
ELY            CLOUDY    16   9  73 W5        29.93S WCI   9
HIBBING        CLOUDY    19   5  54 NW7       29.97R WCI  10
EVELETH        PTCLDY    19   5  53 W14G20    29.98R WCI   6
DULUTH HARBOR  CLOUDY    27  10  50 SW9       30.02S WCI  17
TWO HARBORS    CLOUDY    21  12  68 SW5       29.95S WCI  15
SILVER BAY     CLOUDY    21  10  63 CALM      29.93S
GRAND MARAIS     N/A     21  11  65 VRB7G16   29.96S WCI  12
G MARAIS ARPRT CLOUDY    10   3  72 W9        29.88R WCI  -2
$$
MNZ029>031-032-039>041-046>048-054>057-064-280200-
   West Central Minnesota

CITY           SKY/WX    TMP DP  RH WIND       PRES   REMARKS
FERGUS FALLS   CLOUDY    21  16  79 SW3       30.08S
WHEATON        CLOUDY    18  14  86 S3        30.09R
MORRIS         CLEAR     18  14  86 SW8       30.06S WCI   7
ALEXANDRIA     MOCLDY    16  11  80 SW7       30.04S WCI   6
ELBOW LAKE     CLOUDY    19  17  90 SW6       30.05R WCI  11
WADENA         CLOUDY    19  16  86 W7        30.02S WCI  10
GLENWOOD       CLEAR     10   9  92 SW7       30.06R WCI   0
APPLETON       CLEAR     16  12  86 SW8       30.09F WCI   5
BENSON         CLEAR     18  12  79 W8        30.08F WCI   7
ORTONVILLE     CLEAR     16  10  79 SW6       30.08S WCI   7
MADISON        CLEAR     16  12  86 SW6       30.11S WCI   7
WILLMAR        FAIR      16  12  86 SW8       30.10S WCI   5
$$
MNZ033>034-036-042>043-049>051-058-059-280200-
   Central Minnesota

CITY           SKY/WX    TMP DP  RH WIND       PRES   REMARKS
ST CLOUD       CLEAR     20  10  65 SW8       30.07S WCI  10
SAUK CENTRE    FAIR      12   8  85 SW5       30.06S WCI   4
PAYNESVILLE    CLEAR     11   9  89 S5        30.08S WCI   3
AITKIN         CLOUDY    25  10  54 W3        30.00R
PINE RIVER     CLOUDY    19  12  73 W5        30.05R WCI  13
BRAINERD       CLOUDY    21  12  68 W8        30.03R WCI  11
STAPLES        CLOUDY    18  12  79 CALM      30.03R
LITTLE FALLS   CLEAR     18  10  73 CALM      30.05F
LITCHFIELD     PTCLDY    14  10  85 CALM      30.09F
BUFFALO        CLOUDY    13   8  79 SW7       30.11F WCI   3
MAPLE LAKE     MOCLDY    15  11  83 S5        30.10S WCI   7
$$
MNZ037-044-045-052-053-280200-
   East Central Minnesota

CITY           SKY/WX    TMP DP  RH WIND       PRES   REMARKS
PRINCETON      MOCLDY    18  10  73 CALM      30.07S
MORA           CLOUDY    19   7  58 SW8       30.06S WCI   9
CAMBRIDGE      MOCLDY    19   9  63 SW10      30.06S WCI   8
RUSH CITY      MOCLDY    19   8  62 SW5       30.07R WCI  12
MOOSE LAKE     CLOUDY    23   9  54 SW6       29.99S WCI  16
HINCKLEY       CLOUDY    23  12  63 SW10      30.03S WCI  12
CLOQUET        CLOUDY    21   5  49 W6        29.98S WCI  14
MCGREGOR       CLOUDY    23  12  63 W7        30.00S WCI  15
$$
MNZ071>073-080-081-089-090-097-098-280200-
   Southwest Minnesota

CITY           SKY/WX    TMP DP  RH WIND       PRES   REMARKS
MONTEVIDEO     CLEAR     16  14  93 W7        30.12S WCI   6
GRANITE FALLS  CLEAR     11   8  87 W3        30.14R
CANBY          CLEAR     17  12  82 W8        30.12S WCI   6
MARSHALL       CLEAR     14   7  73 SW15      30.11S WCI  -1
REDWOOD FALLS  CLEAR     14   8  77 SW13      30.12S WCI   0
OLIVIA         MOCLDY    12  10  92 SW9       30.11S WCI   0
PIPESTONE      CLEAR      7   3  85 SW9       30.11S WCI  -7
WINDOM         CLEAR     10   7  85 SW5       30.13R WCI   2
WORTHINGTON    CLEAR     10 -33  12 SW9       30.13F WCI  -2
JACKSON        CLEAR     12   9  85 SW10      30.13S WCI  -1
TRACY          CLEAR     13   9  83 SW15      30.13R WCI  -3
SLAYTON        CLEAR      9   6  86 CALM      30.13R
$$
MNZ065>067-074>077-082>085-091>093-280200-
   South Central Minnesota

CITY           SKY/WX    TMP DP  RH WIND       PRES   REMARKS
MANKATO        CLEAR     12   5  73 S8        30.13S WCI   1
NEW ULM        CLEAR      9   5  85 SW7       30.13S WCI  -3
ST JAMES       CLEAR     12   9  85 SW9       30.15S WCI   0
FAIRMONT       CLEAR     16   7  67 SW9       30.13F WCI   4
GLENCOE        CLEAR      9   7  89 SW5       30.11F WCI   1
FARIBAULT      CLEAR     10   5  79 SW6       30.12F WCI   1
OWATONNA       CLEAR      9   3  78 SW6       30.12F WCI  -1
WASECA         CLEAR      9   5  85 SW6       30.14F WCI  -1
ALBERT LEA     CLEAR     12   9  85 SW6       30.13F WCI   3
$$
MNZ078>079-086>088-094>096-280200-
   Southeast Minnesota

CITY           SKY/WX    TMP DP  RH WIND       PRES   REMARKS
ROCHESTER      CLEAR      8   4  83 W13       30.12R WCI  -8
RED WING       CLEAR     16   9  73 W9        30.12S WCI   4
STANTON        CLEAR      8   4  82 SW6       30.12S WCI  -2
DODGE CENTER   CLEAR      9   5  85 W10       30.11S WCI  -6
WINONA         CLEAR     21  16  79 CALM      30.15R
AUSTIN         CLEAR     10   7  85 CALM      30.13F
PRESTON        CLEAR     11   8  87 W8        30.13R WCI  -1
$$
ABBREVIATIONS USED IN REMARKS
   TC - TEMPERATURES IN CELSIUS
  WCI - WIND CHILL INDEX
   HX - HEAT INDEX
  VSB - VISIBILITY
$$



USA.gov is the U.S. government's official web portal to all federal, state and local government web resources and services.